DECAYED

STARLINK-1395, 45680 (Decayed)

Orbit data source: Space-Track

STARLINK-1395, 45680 was a payload satellite owned by SpaceX/Seattle (US) in LEO that was launched on Thu, 04 Jun 2020 UTC via an FALCON 9 launch vehicle from the Air Force Eastern Test Range (AFETR). Payload-class satellites include a variety of spacecraft equipped with specific instruments for various scientific and technological missions. These include communications satellites like Starlink; space stations such as the ISS; scientific satellites like the Hubble; Earth observation satellites from companies like Planet Labs, Umbra, and HawkEye 360; GPS; miniature CubeSats for education and research; and military/defense satellites.

Not visible in the next 10 days
Identifier
45680, 2020-035Z
Orbit
Decayed
Country
Flag of USUS
Related business
Manufacturer
SpaceX/Seattle
Mission
Decayed Commercial Communications
Bus & Motor
STARLINK, Unknown motor
Mass
260 kg wet, ~248 kg dry
Launch date (UTC)
2020-06-04 (6 years ago)
Launch vehicle
FALCON 9
Launch site
Air Force Eastern Test Range (AFETR)
Object type
Payload
Rocket body
Debris
Shape & HBR
Box + 1 Pan, 10.1 m
Radar Cross Section
13.562 m², Large (>1 m²)

Expand to show TLE details & history
Last TLE update: 9 months ago

TLE from 9 months ago
0 STARLINK-1395
1 45680U 20035Z   25115.86455435  .18701539  12028-4  41478-2 0  9994
2 45680  53.0347 346.9371 0009961 254.5227 212.0272 16.29445543271348
Epoch: 2025-04-25T20:44Z
TLE epoch observation values (Epoch: 2025-04-25T20:44:57.495Z)
Latitude
50.16349°
Longitude
-62.18049°
Altitude
205.383 km
Speed
7.786 km/s
True Right ascension
06h 52m 41s
True Declination
49° 58' 48"
Sunlit
Object was in daylight at epoch
Visualization orbit readout
Latitude
Unknown
Longitude
Unknown
Altitude
Unknown
Speed
Unknown
Apparent Right ascension
Unknown
Apparent Declination
Unknown
Sunlit
N/A
Visualization observer readout
Local Sidereal Time
11:34:51
Azimuth
Unknown
Elevation
Unknown
Doppler factor
Unknown
Orbital elements
Apogee altitude
200.865 km
Perigee altitude
187.772 km
Semi-major axis
6,572.455 km
Eccentricity
0.001
Inclination
53.0347°
RAAN
346.9371°
Arg. of periapsis
254.5227°
True anomaly
211.96673°
Mean anomaly
212.0272°
Eccentric anomaly
211.99696°
Mean motion
4.07335 °/min
Orbital period
88.38 mins
BSTAR
0.0041478
Loading maneuver chart data...
Computing Atmospheric mass density...
Loading historical data...
Loading historical data...
Loading historical data...
Loading historical data...
Loading historical data...
Loading historical data...
Loading historical data...

Documentation

Showing up to 5 results
|